World > North America > United States > Minnesota

Hourly Durand, MN Regional Weather

Feedback E-mail the Weather

Quick WX

Durand, MN Weather Maps

°F °C°F °C
Durand Weather Map
UTC Time: 7/7/2022, 08:23
Your Time:

Durand, MN Regional Weather

Expires:202207070900;;886416
ASUS43 KMPX 070810
RWRMN 
WEATHER ROUNDUP FOR MINNESOTA
NATIONAL WEATHER SERVICE TWIN CITIES/CHANHASSEN MN
300 AM CDT THU JUL 07 2022


NOTE: "FAIR" INDICATES FEW OR NO CLOUDS BELOW 12,000 FEET WITH NO
SIGNIFICANT WEATHER AND/OR OBSTRUCTIONS TO VISIBILITY. N/A MEANS
CURRENT SKY AND/OR WEATHER CONDITIONS ARE NOT AVAILABLE.


MNZ001>005-007-008-013>017-022>024-027-028-070900-
   Northwest Minnesota   
  
CITY           SKY/WX    TMP DP  RH WIND       PRES   REMARKS
BEMIDJI        PTCLDY    63  63 100 CALM      29.98F                  
HALLOCK        PTCLDY    68  64  88 NW3       29.97R                  
ROSEAU           N/A     66  63  88 NW6       29.97R                  
WARROAD        PTCLDY    64  61  88 W6        29.97R FOG              
THIEF RVR FALL MOCLDY    65  64  97 S3        29.97R                  
CROOKSTON      MOCLDY    70  64  83 S7        29.95S                  
DETROIT LAKES  MOCLDY    70  66  88 S6        29.99S                  
MOORHEAD       CLEAR     70  66  88 S7        29.97S                  
PARK RAPIDS    CLEAR     65  63  93 CALM      30.00R                  
MAHNOMEN       FAIR      67  67 100 S7        29.98R                  
$$

SKY/WX - Weather  TMP - Temperature  DP - Dew Point  RH - Humidity
WIND - Wind Direction/Speed PRES - Barometric Pressure VSB - Visibility
WCI - Wind Chill Index E13G22 Wind - East Wind 13 mph/Gusts of 22 mph

Trending Headlines

Durand Radar Loop



Durand Quick Facts


National Two Day Weather Forecast


E-mail the Durand Weather Forecast

Voice your opinion or tell us about page issues...